Simultaneous Nadir Overpasses (SNOs) Predictions

Prediction of SNOs between AQUA and METOP-B Satellite Orbit:

Table of predicted SNOs for the next 14.0 days since TLE Epoch: 5/1/2021
Index Date (AQUA) Time (AQUA) Lat,Lon (AQUA) SZA (AQUA ) Date (METOP-B) Time (METOP-B) Lat,Lon (METOP-B) SZA (METOP-B ) Distance(km) Time Diff (sec)
1 05/03/2021 08:11:54 73.81, 51.29 58.01 05/03/2021 08:11:18 73.78, 51.33 57.99 3.22 36
2 05/03/2021 09:01:21 -73.88,-141.23 121.93 05/03/2021 09:01:58 -73.86,-141.15 121.96 3.15 37
3 05/06/2021 03:46:07 73.81, 117.72 57.20 05/06/2021 03:45:42 73.78, 117.74 57.18 3.10 25
4 05/06/2021 04:35:34 -73.87, -74.78 122.74 05/06/2021 04:36:22 -73.87, -74.73 122.76 1.61 48
5 05/08/2021 22:30:46 -73.41, 17.38 123.98 05/08/2021 22:29:36 -73.34, 15.79 124.00 51.18 70
6 05/08/2021 23:20:21 73.82,-175.86 56.44 05/08/2021 23:20:06 73.83,-175.74 56.45 3.81 15
7 05/09/2021 00:09:48 -73.88, -8.35 123.51 05/09/2021 00:10:47 -73.87, -8.32 123.52 1.11 59
8 05/11/2021 18:05:06 -73.74, 83.13 124.37 05/11/2021 18:03:53 -73.74, 83.11 124.36 0.67 73
9 05/11/2021 18:54:35 73.84,-109.46 55.73 05/11/2021 18:54:31 73.83,-109.35 55.72 3.76 4
10 05/11/2021 19:44:02 -73.89, 58.07 124.23 05/11/2021 19:45:12 -73.87, 58.08 124.25 2.09 70
11 05/14/2021 13:39:19 -73.76, 149.53 125.04 05/14/2021 13:38:17 -73.74, 149.51 125.05 2.01 62
12 05/14/2021 14:28:47 73.82, -42.96 55.02 05/14/2021 14:28:55 73.82, -42.96 55.02 0.52 8



Historial Predications of SNOs between AQUA and METOP-B
